Погода в Вендинге

Поиск расширенной информации на нашем сайте:

Полезная информация:

Новости сайта



02.01.2020
Опубликован Долгосрочный прогноз погоды по городам России и ближнего зарубежья на январь 2020 года.
Карты: Прогноз на январь и февраль 2020 года, Сравнение прогнозируемой аномалии приземной температуры воздуха на январь 2020 года по разным моделям.




Погода в Вендинге - сегодня

Время (UTC), дата Ветер
(°,м/с) 
Видим.   Явления Облачность Т
(°С)
Тd
(°С)
f(%) Тe
(°С)
Pmin
(гПа)
dP
(гПа)
Po
(мм)
O2
(г/м3)
Тmin Tmax R s Состояние
почвы
06 29.11.20 160 (Ю) 20000 м    6/0 верхняя 
[Cc]
-18.5 -20.8 82 -19  1045.2  776  337           
09 29.11.20 160 (Ю) 20000 м    3/0 верхняя 
[Cc]
-13.8 -15.8 85 -14  1045.1  0.1  776  331           
12 29.11.20 тихо ()   20000 м    ясно 
-16.1 -18 85 -16  1044.7  -0.5  775  333           
15 29.11.20 150 (ЮВ) 20000 м    10/6 570 м средняя 
[Sc|Ac As]
-11.4 -13.4 85 -13  1043.9  -0.6  775  327    -11.4       
18 29.11.20 150 (ЮВ) 20000 м    10/10 630 м 
[Sc]
-9.9 -11.6 87 -12  1042.7  -1.2  774  325           
00 30.11.20 160 (Ю) 20000 м    10/10 200 м верхняя 
[Frnb|Cc]
-7.9 -9.3 90 -11  1041.6  -0.6  773  322           
03 30.11.20 160 (Ю) 20000 м    10/10 360 м 
[Sc]
-7.4 -9 88 -10  1040.7  -0.8  773  321  -11.4      равномерный
сухой снег
100% 
06 30.11.20 160 (Ю) 20000 м    10/10 240 м 
[St]
-6.5 -7.8 90 -10  1040.3  -0.4  772  320           
09 30.11.20 150 (ЮВ) 20000 м    10/10 300 м 
[Sc]
-5.4 -6.8 90 -8  1039.3  -1  772  318           
12 30.11.20 160 (Ю) 20000 м    10/10 300 м 
[St]
-4.2 -5.4 91 -6  1038.4  -0.8  771  316           
15 30.11.20 160 (Ю) 20000 м    10/10 270 м 
[St]
-2.9 -4 92 -6  1037  -1.4  770  314    -2.9       
18 30.11.20 160 (Ю) 20000 м    10/10 240 м 
[St]
-1.9 -3 92 -5  1035.2  -1.7  769  312           
00 01.12.20 170 (Ю) 5{11}  20000 м    10/10 270 м 
[St]
-3.4 -4.8 90 -7  1032.3  -1.3  767  313           
03 01.12.20 170 (Ю) 5{12}  20000 м    10/10 210 м 
[St]
-3.3 -4.7 90 -7  1031.6  -0.8  766  313  -3.8      равномерный
сухой снег
100% 
06 01.12.20 170 (Ю) 4{10}  20000 м    10/10 360 м 
[Sc]
-3.7 -5.7 86 -7  1031.1  -0.5  766  313           
09 01.12.20 180 (Ю) 5{11}  20000 м    10/10 450 м 
[Sc]
-4 -6.2 85 -8  1030.6  -0.6  765  314           
12 01.12.20 190 (Ю) 20000 м    10/10 480 м 
[Sc]
-4.7 -7.1 83 -8  1029.9  -0.7  765  314           
15 01.12.20 190 (Ю) 10 км  слаб. снег  10/10 480 м 
[Sc]
-4.5 -6.8 84 -8  1029.6  -0.3  764  314    -3.3  0.0     
18 01.12.20 190 (Ю) 4000 м  слаб. снег  10/3 300 м средняя 
[Sc|As op]
-4.8 -6.8 86 -8  1029.6  764  314           
00 02.12.20 180 (Ю) 10 км  слаб. снег  10/9 420 м средняя 
[Sc|As op]
-4.1 -6 87 -6  1030.1  765  314           
03 02.12.20 190 (Ю) 10 км  слаб. снег  10/8 420 м средняя 
[Sc|As op]
-4 -6.5 83 -8  1029.6  -0.5  764  313  -5    0.3  равномерный
сухой снег
100% 
06 02.12.20 170 (Ю) 4000 м  слаб. снег  н/о 
-4.5 -6.1 89 -8  1029.6  764  314           
09 02.12.20 190 (Ю) 10 км  слаб. снег  10/8 360 м средняя 
[Sc|As op]
-3.8 -5.2 90 -6  1030.2  0.6  765  313           
12 02.12.20 190 (Ю) 10 км  слаб. снег  10/10 330 м 
[Sc]
-3.3 -4.7 90 -4  1030.6  0.5  765  313           
15 02.12.20 200 (Ю) 10 км  слаб. снег  10/10 400 м 
[Sc]
-2.7 -4 91 -4  1031.3  0.7  766  312    -2.7  0.5     
Время (UTC), дата Ветер
(°,м/с) 
Видим.   Явления Облачность Т
(°С)
Тd
(°С)
f(%) Тe
(°С)
Pmin
(гПа)
dP
(гПа)
Po
(мм)
O2
(г/м3)
Тmin Tmax R s Состояние
почвы

Для получения пояснительной информации подведите курсор к названию столбца.

ПОГОДА в Вендинге - архив

Всё, что Вы хотите узнать о погоде в Вендинге - удобно и подробно!

Выберите нужную дату (начиная с 1 января 2019* года) и нажмите кнопку "Найти".
Будут отображены архивные сводки погоды по пункту Вендинга, начиная с указанной даты.


Отображать данные в формате CSV (для использования в таблицах Excel)


Внимание! Наш архив погоды предназначен исключительно для личного некоммерческого использования в познавательных целях. Если Вам необходимы официальные справки о состоянии погоды (для производственных, юридических, коммерческих и т.п. целей), обращайтесь в органы Росгидромета.

*Примечание: данная дата относится к архиву по метеостанциям СССР (Россия, СНГ, Балтия).
Архив по метеостанциям Зарубежной Европы и Азии (кроме Китая) хранится 10 дней, по другим регионам земного шара (Китай, Африка, Америка, Австралия, Океания) - 1 день.

Вендинга - район местоположения метеостанции


Название, широта, долгота, высота метеостанции:
Вендинга 63.4°ш. 47.9°д. 80 м над ур. моря [Российская Федерация]

Дополнительная информация

В oтличие oт бoльшинства пoгoдных сайтoв мы публикуем пoдрoбную метеoинфoрмацию в детальнoм прoфессиoнальнoм фoрмате.

Характеристики температуры и влажнoсти вoздуха измеряются на высoте 2 м в тени вдали oт зданий и деревьев.
Скoрoсть ветра измеряется на высoте 10 м (на урoвне рoста челoвека скoрoсть ветра ниже в 1.5-2 раза). Если метеoстанция нахoдится в гoрoде или в лесу, тo скoрoсть ветра занижена на 2-4 м/с пo сравнению с oткрытым местoм. Скoрoсть ветра над акватoриями крупных рек и oзёр, а также на вершинах хoлмoв на 2-5 м/с выше, чем в oбычных услoвиях.
Атмoсфернoе давление в разных тoчках местнoсти мoжет значительнo oтличаться oт давления на метеoстанции, в зависимoсти oт услoвий рельефа (при пoдъёме на 10 м давление пoнижается примернo на 1 мм рт.ст.).